sat.trackr.live / text

‹ back to catalog

STARLINK-32753

NORAD 62481 · 2024-254V

PAYLOAD ACTIVE UNKNOWN

§ Identity

Operator
Country
US
Launch date
2024-12-31
Launch site
AFETR
Launch vehicle
Mass (kg)
RCS (m²)

Purposes: comms

External: N2YO · Heavens-Above · Gunter

§ Orbital elements

Epoch: 2026-05-24T18:47:10.648032Z

Period
94.27 min
Inclination
43.0014°
Eccentricity
0.0001918
Mean motion
15.27590556 rev/d
Perigee alt
481.7 km
Apogee alt
484.3 km
Semi-major
6,861.2 km
B*
4.3202e-4
RAAN
306.3588°
Arg perigee
265.1727°
Mean anomaly
94.8905°
Rev number
7,929

§ Raw data

STARLINK-327531 62481U 24254V   26144.78276213  .00011649  00000+0  43202-3 0  99952 62481  43.0014 306.3588 0001918 265.1727  94.8905 15.27590556 79294

JSON: /api/v1/satellites/62481 · /tle

For live sub-satellite position, see the globe view (requires WebGL).

§ Visibility from observer

Set your observer location to see the next 7 days of passes ≥ 10°. The values pass through the URL so the page stays shareable.

No JS? Fill the form by hand. The geolocation button needs JavaScript.